This is the latest recevied weather packets stored in our database for station/object KC5CAM-13. If no packets are shown the sender has not sent any weather packets the latest 10 day(s).
| Time | Temp. | Humidity | Pressure | Rain* | Wind** | Luminosity | Snow |
|---|---|---|---|---|---|---|---|
| 1777933430 | 27.22° C | 62% | 1006.8 hPa | 0 mm | - | 317 W/m² | - |
| 1777933128 | 27.22° C | 61% | 1006.9 hPa | 0 mm | - | 278 W/m² | - |
| 1777932825 | 27.78° C | 61% | 1007 hPa | 0 mm | - | 317 W/m² | - |
| 1777932522 | 27.78° C | 61% | 1006.8 hPa | 0 mm | - | 368 W/m² | - |
| 1777932218 | 27.78° C | 60% | 1006.9 hPa | 0 mm | - | 352 W/m² | - |
| 1777931916 | 27.78° C | 60% | 1006.9 hPa | 0 mm | - | 362 W/m² | - |
| 1777931612 | 27.22° C | 62% | 1006.9 hPa | 0 mm | - | 366 W/m² | - |
| 1777931308 | 27.22° C | 60% | 1007 hPa | 0 mm | - | 311 W/m² | - |
| 1777931005 | 27.78° C | 59% | 1007.1 hPa | 0 mm | - | 290 W/m² | - |
| 1777930702 | 27.78° C | 60% | 1007.2 hPa | 0 mm | - | 416 W/m² | - |
| 1777930398 | 27.78° C | 61% | 1007.7 hPa | 0 mm | - | 503 W/m² | - |
| 1777930095 | 27.22° C | 61% | 1007.4 hPa | 0 mm | - | 505 W/m² | - |
| 1777929791 | 26.67° C | 61% | 1007.8 hPa | 0 mm | - | 373 W/m² | - |
| 1777929489 | 27.78° C | 62% | 1007.7 hPa | 0 mm | - | 266 W/m² | - |
| 1777929185 | 27.22° C | 59% | 1007.7 hPa | 0 mm | - | 482 W/m² | - |
| 1777928883 | 27.22° C | 59% | 1007.9 hPa | 0 mm | - | 548 W/m² | - |
| 1777928580 | 27.22° C | 60% | 1008 hPa | 0 mm | - | 537 W/m² | - |
| 1777928277 | 27.22° C | 60% | 1008 hPa | 0 mm | - | 514 W/m² | - |
| 1777927974 | 27.22° C | 59% | 1008.3 hPa | 0 mm | - | 515 W/m² | - |
| 1777927672 | 27.22° C | 60% | 1008.3 hPa | 0 mm | - | 515 W/m² | - |
| 1777927370 | 27.78° C | 61% | 1008.5 hPa | 0 mm | - | 544 W/m² | - |
| 1777927070 | 27.22° C | 61% | 1008.6 hPa | 0 mm | - | 564 W/m² | - |
| 1777926766 | 26.67° C | 60% | 1009 hPa | 0 mm | - | 545 W/m² | - |
| 1777926461 | 26.67° C | 60% | 1008.8 hPa | 0 mm | - | 505 W/m² | - |
| 1777926159 | 26.67° C | 61% | 1008.7 hPa | 0 mm | - | 559 W/m² | - |
* Rain latest hour (hover to see other rain measurements)
** Current wind speed in m/s (hover to see current wind gust speed)